EW5738 Weather Reports


Display with metric or nautical units.
time (UTC)temp
F
wind
direction
speed
MPH
gust
MPH
rain 1hr
in
rain 24hr
in
rain mn
in
humidity
%
barometer
mb
20260509011559 70 220 5.0 14.0 0.00 0.00 0.00 54 1023.9
20260509010059 71 141 5.0 10.0 0.00 0.00 0.00 56 1024.0
20260509004612 69 139 4.0 9.0 0.00 0.00 0.00 57 1024.2
20260509003052 67 178 3.0 8.0 0.00 0.00 0.00 58 1024.3
20260509001548 67 128 4.0 11.0 0.00 0.00 0.00 57 1024.3
20260509000046 67 180 5.0 11.0 0.00 0.00 0.00 58 1024.4
20260508234546 65 150 4.0 10.0 0.00 0.00 0.00 58 1024.3
20260508233040 64 187 5.0 10.0 0.00 0.00 0.00 58 1024.2
20260508231538 64 125 3.0 12.0 0.00 0.00 0.00 59 1024.2
20260508230050 64 170 3.0 7.0 0.00 0.00 0.00 60 1024.0
20260508224533 63 279 2.0 6.0 0.00 0.00 0.00 61 1023.8
20260508223028 63 215 4.0 10.0 0.00 0.00 0.00 63 1023.6
20260508221523 61 302 0.0 3.0 0.00 0.00 0.00 64 1023.6
20260508220019 60 286 0.0 3.0 0.00 0.00 0.00 66 1023.4
20260508214516 59 297 3.0 7.0 0.00 0.00 0.00 63 1023.2
20260508213013 58 308 2.0 5.0 0.00 0.00 0.00 64 1023.0
20260508211511 57 281 2.0 7.0 0.00 0.00 0.00 67 1022.8
20260508210008 55 274 2.0 7.0 0.00 0.00 0.00 68 1022.8
20260508204505 53 286 3.0 5.0 0.00 0.00 0.00 72 1022.6
20260508203100 53 186 3.0 5.0 0.00 0.00 0.00 72 1022.3
20260508201559 53 286 1.0 3.0 0.00 0.00 0.00 71 1022.3
20260508194556 53 152 2.0 4.0 0.00 0.00 0.00 69 1021.9
20260508193054 54 163 2.0 5.0 0.00 0.00 0.00 68 1021.6
20260508191552 54 283 1.0 3.0 0.00 0.00 0.00 66 1021.5
20260508190059 54 190 1.0 4.0 0.00 0.00 0.00 68 1021.3
20260508184606 55 295 0.0 2.0 0.00 0.00 0.00 66 1021.3
20260508183047 54 231 1.0 4.0 0.00 0.00 0.00 69 1021.3
20260508181558 53 314 0.0 3.0 0.00 0.00 0.00 72 1021.1
20260508180045 52 162 1.0 2.0 0.00 0.00 0.00 74 1021.1
20260508174546 50 162 1.0 3.0 0.00 0.00 0.00 76 1021.0
20260508173046 51 213 1.0 5.0 0.00 0.00 0.00 75 1021.2
20260508171539 51 190 1.0 4.0 0.00 0.00 0.00 76 1021.1
20260508170040 52 223 1.0 4.0 0.00 0.00 0.00 73 1021.0
20260508164535 53 331 0.0 2.0 0.00 0.00 0.00 72 1021.0
20260508163033 53 314 1.0 4.0 0.00 0.00 0.00 70 1020.9
20260508161535 53 194 3.0 6.0 0.00 0.00 0.00 73 1021.0
20260508160031 53 171 3.0 5.0 0.00 0.00 0.00 73 1020.9
20260508154527 53 182 3.0 6.0 0.00 0.00 0.00 72 1020.9
20260508153024 54 178 2.0 5.0 0.00 0.00 0.00 70 1020.9
20260508151522 55 169 3.0 5.0 0.00 0.00 0.00 66 1020.7
20260508150021 56 190 3.0 5.0 0.00 0.00 0.00 66 1020.6
20260508144540 57 187 1.0 3.0 0.00 0.00 0.00 61 1020.7
20260508143013 57 347 1.0 5.0 0.00 0.00 0.00 62 1020.7
20260508141510 58 170 3.0 6.0 0.00 0.00 0.00 55 1020.7
20260508140009 58 303 2.0 6.0 0.00 0.00 0.00 55 1020.7
20260508134505 59 295 1.0 4.0 0.00 0.00 0.00 56 1020.6
20260508133004 58 148 2.0 4.0 0.00 0.00 0.00 56 1020.5
20260508131603 57 216 1.0 3.0 0.00 0.00 0.00 58 1020.3
20260508130002 57 331 1.0 6.0 0.00 0.00 0.00 63 1020.1
20260508124501 60 310 3.0 9.0 0.00 0.00 0.00 52 1020.0
20260508123001 60 299 4.0 11.0 0.00 0.00 0.00 53 1020.2
20260508121606 59 281 4.0 8.0 0.00 0.00 0.00 56 1020.3
20260508120100 58 283 3.0 9.0 0.00 0.00 0.00 61 1020.4
20260508114559 57 272 3.0 8.0 0.00 0.00 0.00 63 1020.4
20260508113109 56 276 3.0 7.0 0.00 0.00 0.00 65 1020.3
20260508111657 55 300 2.0 6.0 0.00 0.00 0.00 73 1020.3
20260508110059 54 295 1.0 4.0 0.00 0.00 0.00 75 1020.2
20260508104554 55 314 1.0 3.0 0.00 0.00 0.00 72 1020.1
20260508103100 55 314 0.0 2.0 0.00 0.00 0.00 69 1020.1
20260508101602 55 178 0.0 4.0 0.00 0.00 0.00 70 1020.1
20260508100052 56 167 1.0 4.0 0.00 0.00 0.00 71 1020.0
20260508094550 56 305 3.0 6.0 0.00 0.00 0.00 70 1019.8
20260508093150 57 305 1.0 5.0 0.00 0.00 0.00 68 1019.7
20260508091557 57 324 1.0 4.0 0.00 0.00 0.00 66 1019.6
20260508090100 58 307 2.0 4.0 0.00 0.00 0.00 66 1019.5
20260508084545 58 295 3.0 6.0 0.00 0.00 0.00 65 1019.3
20260508083044 59 306 2.0 4.0 0.00 0.00 0.00 62 1019.2
20260508081544 60 295 2.0 4.0 0.00 0.00 0.00 55 1019.0
20260508080042 61 290 1.0 5.0 0.00 0.00 0.00 55 1018.5
20260508074544 62 340 1.0 3.0 0.00 0.00 0.00 52 1018.2
20260508073041 63 286 1.0 3.0 0.00 0.00 0.00 47 1018.2
20260508071549 65 295 0.0 2.0 0.00 0.00 0.00 42 1018.1
20260508070039 67 314 0.0 3.0 0.00 0.00 0.00 37 1017.9
20260508064539 67 269 1.0 4.0 0.00 0.00 0.00 42 1017.8
20260508063039 69 322 2.0 3.0 0.00 0.00 0.00 38 1017.6
20260508061538 69 314 2.0 4.0 0.00 0.00 0.00 33 1017.6
20260508060036 70 1 2.0 5.0 0.00 0.00 0.00 32 1017.6
20260508054535 70 288 2.0 7.0 0.00 0.00 0.00 31 1017.6
20260508053057 70 291 2.0 7.0 0.00 0.00 0.00 32 1017.8
20260508051634 70 277 3.0 7.0 0.00 0.00 0.00 30 1017.8
20260508050031 70 315 4.0 9.0 0.00 0.00 0.00 30 1017.9
20260508044530 70 278 5.0 9.0 0.00 0.00 0.00 32 1018.1
20260508043028 69 314 3.0 12.0 0.00 0.00 0.00 33 1018.1
20260508041552 69 274 3.0 7.0 0.00 0.00 0.00 33 1018.2
20260508040026 70 314 2.0 8.0 0.00 0.00 0.00 35 1018.2
20260508034525 70 290 4.0 7.0 0.00 0.00 0.00 35 1018.3
20260508033100 70 46 1.0 5.0 0.00 0.00 0.00 33 1018.6
20260508031601 69 89 1.0 7.0 0.00 0.00 0.00 36 1018.8
20260508030058 70 300 2.0 8.0 0.00 0.00 0.00 36 1018.8
20260508024606 70 342 5.0 11.0 0.00 0.00 0.00 33 1019.2
20260508023054 70 1 1.0 5.0 0.00 0.00 0.00 28 1019.3
20260508021552 69 274 3.0 6.0 0.00 0.00 0.00 29 1019.6
20260508020053 68 46 2.0 5.0 0.00 0.00 0.00 35 1020.0
20260508014549 68 213 3.0 9.0 0.00 0.00 0.00 33 1020.3
20260508013048 67 306 1.0 5.0 0.00 0.00 0.00 34 1020.6